| time (UTC) | temp C | wind direction | speed KPH | gust KPH | rain 1hr cm | rain 24hr cm | rain mn cm | humidity % | barometer mb |
| 20260507031001 | 18 | 256 | 1.6 | 4.8 | 0.00 | 0.00 | 0.00 | 82 | 1008.7 |
| 20260507030500 | 18 | 256 | 1.6 | 4.8 | 0.00 | 0.00 | 0.00 | 82 | 1008.8 |
| 20260507025000 | 18 | 265 | 0.0 | 4.8 | 0.00 | 0.00 | 0.00 | 82 | 1008.7 |
| 20260507024501 | 18 | 265 | 1.6 | 4.8 | 0.00 | 0.00 | 0.00 | 82 | 1008.9 |
| 20260507024001 | 18 | 269 | 1.6 | 4.8 | 0.00 | 0.00 | 0.00 | 82 | 1008.9 |
| 20260507023500 | 18 | 269 | 0.0 | 4.8 | 0.00 | 0.00 | 0.00 | 82 | 1009.0 |
| 20260507022500 | 18 | 269 | 0.0 | 3.2 | 0.00 | 0.00 | 0.00 | 82 | 1009.1 |
| 20260507022002 | 18 | 269 | 0.0 | 3.2 | 0.00 | 0.00 | 0.00 | 82 | 1009.1 |
| 20260507021500 | 18 | 269 | 0.0 | 3.2 | 0.00 | 0.00 | 0.00 | 81 | 1009.1 |
| 20260507020459 | 19 | 269 | 0.0 | 3.2 | 0.00 | 0.00 | 0.00 | 81 | 1009.1 |
| 20260507015500 | 19 | 269 | 1.6 | 4.8 | 0.00 | 0.00 | 0.00 | 81 | 1009.5 |
| 20260507015002 | 19 | 269 | 1.6 | 6.4 | 0.00 | 0.00 | 0.00 | 81 | 1009.5 |
| 20260507014501 | 18 | 269 | 0.0 | 6.4 | 0.00 | 0.00 | 0.00 | 81 | 1009.5 |
| 20260507014000 | 19 | 269 | 1.6 | 3.2 | 0.00 | 0.00 | 0.00 | 81 | 1009.3 |
| 20260507013500 | 18 | 269 | 0.0 | 3.2 | 0.00 | 0.00 | 0.00 | 82 | 1009.3 |
| 20260507013000 | 18 | 269 | 0.0 | 3.2 | 0.00 | 0.00 | 0.00 | 81 | 1009.3 |
| 20260507011500 | 18 | 269 | 0.0 | 1.6 | 0.00 | 0.00 | 0.00 | 81 | 1009.3 |
| 20260507011001 | 18 | 269 | 0.0 | 3.2 | 0.00 | 0.00 | 0.00 | 81 | 1009.3 |
| 20260507010500 | 18 | 269 | 0.0 | 3.2 | 0.00 | 0.00 | 0.00 | 81 | 1009.4 |
| 20260507010001 | 18 | 269 | 0.0 | 1.6 | 0.00 | 0.00 | 0.00 | 80 | 1009.3 |
| 20260507005500 | 18 | 269 | 0.0 | 1.6 | 0.00 | 0.00 | 0.00 | 80 | 1009.2 |
| 20260507005000 | 19 | 269 | 0.0 | 1.6 | 0.00 | 0.00 | 0.00 | 79 | 1009.2 |
| 20260507004459 | 19 | 269 | 0.0 | 3.2 | 0.00 | 0.00 | 0.00 | 79 | 1009.1 |
| 20260507003500 | 19 | 269 | 0.0 | 1.6 | 0.00 | 0.00 | 0.00 | 77 | 1009.0 |
| 20260507003001 | 20 | 269 | 0.0 | 3.2 | 0.00 | 0.00 | 0.00 | 77 | 1009.1 |
| 20260507002459 | 20 | 269 | 0.0 | 3.2 | 0.00 | 0.00 | 0.00 | 77 | 1009.0 |
| 20260507002000 | 20 | 269 | 0.0 | 3.2 | 0.00 | 0.00 | 0.00 | 77 | 1008.8 |
| 20260507001500 | 20 | 269 | 0.0 | 1.6 | 0.00 | 0.00 | 0.00 | 76 | 1008.8 |
| 20260507001001 | 20 | 269 | 1.6 | 6.4 | 0.00 | 0.00 | 0.00 | 76 | 1008.7 |
| 20260507000459 | 20 | 268 | 0.0 | 4.8 | 0.00 | 0.00 | 0.00 | 76 | 1008.8 |
| 20260507000000 | 20 | 273 | 0.0 | 4.8 | 0.00 | 0.00 | 0.00 | 76 | 1008.6 |
| 20260506235501 | 20 | 273 | 0.0 | 4.8 | 0.00 | 0.00 | 0.00 | 76 | 1008.7 |
| 20260506235001 | 20 | 263 | 0.0 | 1.6 | 0.00 | 0.00 | 0.00 | 75 | 1008.6 |
| 20260506234000 | 21 | 263 | 1.6 | 6.4 | 0.00 | 0.00 | 0.00 | 74 | 1008.6 |
| 20260506233501 | 21 | 263 | 1.6 | 16.1 | 0.00 | 0.00 | 0.00 | 73 | 1008.6 |
| 20260506233000 | 21 | 263 | 3.2 | 16.1 | 0.00 | 0.00 | 0.00 | 73 | 1008.6 |
| 20260506231500 | 21 | 9 | 3.2 | 19.3 | 0.00 | 0.00 | 0.00 | 72 | 1008.5 |
| 20260506225959 | 21 | 263 | 3.2 | 12.9 | 0.00 | 0.00 | 0.00 | 72 | 1008.5 |
| 20260506225458 | 21 | 281 | 4.8 | 17.7 | 0.00 | 0.00 | 0.00 | 71 | 1008.6 |
| 20260506224959 | 22 | 268 | 4.8 | 17.7 | 0.00 | 0.00 | 0.00 | 71 | 1008.6 |
| 20260506224459 | 22 | 245 | 6.4 | 20.9 | 0.00 | 0.00 | 0.00 | 70 | 1008.6 |
| 20260506223959 | 22 | 5 | 4.8 | 20.9 | 0.00 | 0.00 | 0.00 | 71 | 1008.6 |
| 20260506223459 | 22 | 263 | 4.8 | 20.9 | 0.00 | 0.00 | 0.00 | 71 | 1008.5 |
| 20260506223000 | 22 | 279 | 4.8 | 20.9 | 0.00 | 0.00 | 0.00 | 71 | 1008.5 |
| 20260506221500 | 22 | 227 | 6.4 | 19.3 | 0.00 | 0.00 | 0.00 | 70 | 1008.6 |
| 20260506221001 | 22 | 220 | 8.0 | 19.3 | 0.00 | 0.00 | 0.00 | 70 | 1008.5 |
| 20260506220459 | 22 | 229 | 6.4 | 20.9 | 0.00 | 0.00 | 0.00 | 70 | 1008.3 |
| 20260506220004 | 22 | 268 | 6.4 | 17.7 | 0.00 | 0.00 | 0.00 | 69 | 1008.3 |
| 20260506215458 | 22 | 243 | 6.4 | 19.3 | 0.00 | 0.00 | 0.00 | 70 | 1008.4 |
| 20260506215000 | 22 | 242 | 8.0 | 22.5 | 0.00 | 0.00 | 0.00 | 69 | 1008.4 |
| 20260506214459 | 22 | 270 | 8.0 | 22.5 | 0.00 | 0.00 | 0.00 | 70 | 1008.3 |
| 20260506214000 | 22 | 261 | 8.0 | 19.3 | 0.00 | 0.00 | 0.00 | 70 | 1008.2 |
| 20260506213458 | 22 | 204 | 8.0 | 22.5 | 0.00 | 0.00 | 0.00 | 70 | 1008.2 |
| 20260506212959 | 22 | 251 | 6.4 | 22.5 | 0.00 | 0.00 | 0.00 | 70 | 1008.3 |
| 20260506212459 | 22 | 214 | 6.4 | 19.3 | 0.00 | 0.00 | 0.00 | 70 | 1008.2 |
| 20260506212000 | 22 | 212 | 8.0 | 20.9 | 0.00 | 0.00 | 0.00 | 71 | 1008.1 |
| 20260506211459 | 22 | 13 | 9.7 | 30.6 | 0.00 | 0.00 | 0.00 | 70 | 1008.3 |
| 20260506211000 | 22 | 196 | 9.7 | 30.6 | 0.00 | 0.00 | 0.00 | 70 | 1008.2 |
| 20260506210458 | 22 | 219 | 8.0 | 24.1 | 0.00 | 0.00 | 0.00 | 71 | 1008.0 |
| 20260506210004 | 22 | 235 | 8.0 | 24.1 | 0.00 | 0.00 | 0.00 | 70 | 1008.1 |
| 20260506205500 | 22 | 292 | 8.0 | 19.3 | 0.00 | 0.00 | 0.00 | 70 | 1008.2 |
| 20260506204959 | 22 | 207 | 8.0 | 19.3 | 0.00 | 0.00 | 0.00 | 70 | 1008.3 |
| 20260506204458 | 22 | 267 | 6.4 | 22.5 | 0.00 | 0.00 | 0.00 | 71 | 1008.1 |
| 20260506203959 | 22 | 220 | 6.4 | 20.9 | 0.00 | 0.00 | 0.00 | 70 | 1008.1 |
| 20260506202459 | 22 | 273 | 8.0 | 25.7 | 0.00 | 0.00 | 0.00 | 70 | 1007.8 |
| 20260506201959 | 22 | 241 | 8.0 | 25.7 | 0.00 | 0.00 | 0.00 | 69 | 1008.0 |
| 20260506201459 | 22 | 226 | 8.0 | 24.1 | 0.00 | 0.00 | 0.00 | 69 | 1008.0 |
| 20260506200959 | 22 | 245 | 8.0 | 24.1 | 0.00 | 0.00 | 0.00 | 69 | 1008.3 |
| 20260506200007 | 22 | 250 | 9.7 | 24.1 | 0.00 | 0.00 | 0.00 | 70 | 1008.5 |
| 20260506195503 | 22 | 182 | 9.7 | 24.1 | 0.00 | 0.00 | 0.00 | 70 | 1008.9 |
| 20260506195005 | 22 | 269 | 9.7 | 22.5 | 0.00 | 0.00 | 0.00 | 69 | 1008.8 |
| 20260506194505 | 22 | 274 | 8.0 | 19.3 | 0.00 | 0.00 | 0.00 | 69 | 1008.6 |
| 20260506194005 | 22 | 269 | 6.4 | 25.7 | 0.00 | 0.00 | 0.00 | 68 | 1008.5 |
| 20260506193504 | 22 | 327 | 8.0 | 25.7 | 0.00 | 0.00 | 0.00 | 68 | 1008.3 |
| 20260506193005 | 22 | 216 | 9.7 | 25.7 | 0.00 | 0.00 | 0.00 | 68 | 1008.3 |
| 20260506192505 | 22 | 237 | 9.7 | 29.0 | 0.00 | 0.00 | 0.00 | 69 | 1008.4 |
| 20260506192005 | 22 | 238 | 9.7 | 33.8 | 0.00 | 0.00 | 0.00 | 70 | 1008.6 |
| 20260506191505 | 22 | 209 | 8.0 | 33.8 | 0.00 | 0.00 | 0.00 | 68 | 1008.9 |
| 20260506191005 | 22 | 170 | 9.7 | 27.4 | 0.00 | 0.00 | 0.00 | 68 | 1009.1 |
| 20260506190504 | 22 | 9 | 9.7 | 27.4 | 0.00 | 0.00 | 0.00 | 71 | 1009.1 |
| 20260506190005 | 22 | 269 | 9.7 | 27.4 | 0.00 | 0.00 | 0.00 | 70 | 1009.1 |
| 20260506185503 | 22 | 194 | 9.7 | 27.4 | 0.00 | 0.00 | 0.00 | 70 | 1009.2 |
| 20260506185005 | 22 | 270 | 8.0 | 27.4 | 0.00 | 0.00 | 0.00 | 70 | 1009.4 |
| 20260506184504 | 22 | 199 | 9.7 | 27.4 | 0.00 | 0.00 | 0.00 | 70 | 1009.3 |
| 20260506183503 | 22 | 250 | 6.4 | 19.3 | 0.00 | 0.00 | 0.00 | 72 | 1009.3 |
| 20260506183005 | 21 | 194 | 9.7 | 29.0 | 0.00 | 0.00 | 0.00 | 73 | 1009.3 |
| 20260506182005 | 21 | 279 | 6.4 | 20.9 | 0.00 | 0.00 | 0.00 | 74 | 1009.6 |
| 20260506181503 | 21 | 169 | 6.4 | 17.7 | 0.00 | 0.00 | 0.00 | 75 | 1009.9 |
| 20260506181004 | 21 | 274 | 6.4 | 16.1 | 0.00 | 0.00 | 0.00 | 74 | 1009.7 |
| 20260506180503 | 21 | 234 | 6.4 | 17.7 | 0.00 | 0.00 | 0.00 | 75 | 1009.7 |
| 20260506175504 | 21 | 264 | 6.4 | 16.1 | 0.00 | 0.00 | 0.00 | 75 | 1009.9 |
| 20260506175005 | 21 | 24 | 6.4 | 16.1 | 0.00 | 0.00 | 0.00 | 76 | 1009.9 |
| 20260506174504 | 20 | 239 | 8.0 | 25.7 | 0.00 | 0.00 | 0.00 | 76 | 1009.7 |
| 20260506174005 | 20 | 236 | 9.7 | 25.7 | 0.00 | 0.00 | 0.00 | 75 | 1009.6 |
| 20260506173005 | 21 | 237 | 9.7 | 33.8 | 0.00 | 0.00 | 0.00 | 75 | 1009.6 |
| 20260506172504 | 21 | 309 | 8.0 | 22.5 | 0.00 | 0.00 | 0.00 | 74 | 1009.8 |
| 20260506172006 | 21 | 263 | 8.0 | 17.7 | 0.00 | 0.00 | 0.00 | 75 | 1009.9 |
| 20260506171505 | 21 | 15 | 8.0 | 19.3 | 0.00 | 0.00 | 0.00 | 75 | 1010.2 |
| 20260506171005 | 21 | 223 | 9.7 | 27.4 | 0.00 | 0.00 | 0.00 | 74 | 1010.0 |
| 20260506170506 | 21 | 250 | 8.0 | 27.4 | 0.00 | 0.00 | 0.00 | 73 | 1010.0 |
| 20260506165504 | 20 | 285 | 8.0 | 27.4 | 0.00 | 0.00 | 0.00 | 74 | 1010.3 |
| 20260506165005 | 20 | 267 | 8.0 | 17.7 | 0.00 | 0.00 | 0.00 | 73 | 1010.5 |
| 20260506164005 | 20 | 174 | 8.0 | 20.9 | 0.00 | 0.00 | 0.00 | 73 | 1010.9 |
| 20260506163502 | 21 | 221 | 8.0 | 22.5 | 0.00 | 0.00 | 0.00 | 73 | 1010.9 |
| 20260506163004 | 21 | 342 | 6.4 | 20.9 | 0.00 | 0.00 | 0.00 | 70 | 1011.1 |
| 20260506162004 | 22 | 229 | 8.0 | 29.0 | 0.00 | 0.00 | 0.00 | 67 | 1011.1 |
| 20260506161004 | 22 | 285 | 9.7 | 24.1 | 0.00 | 0.00 | 0.00 | 64 | 1011.1 |
| 20260506160503 | 23 | 242 | 9.7 | 24.1 | 0.00 | 0.00 | 0.00 | 63 | 1011.0 |
| 20260506155004 | 24 | 289 | 8.0 | 29.0 | 0.00 | 0.00 | 0.00 | 63 | 1011.2 |
| 20260506154503 | 23 | 257 | 8.0 | 29.0 | 0.00 | 0.00 | 0.00 | 63 | 1011.1 |
| 20260506154003 | 23 | 200 | 9.7 | 20.9 | 0.00 | 0.00 | 0.00 | 63 | 1011.1 |
| 20260506153503 | 23 | 271 | 9.7 | 22.5 | 0.00 | 0.00 | 0.00 | 62 | 1011.1 |
| 20260506153005 | 23 | 306 | 9.7 | 25.7 | 0.00 | 0.00 | 0.00 | 62 | 1011.3 |
| 20260506152503 | 23 | 270 | 8.0 | 25.7 | 0.00 | 0.00 | 0.00 | 62 | 1011.2 |
| 20260506152004 | 23 | 171 | 8.0 | 19.3 | 0.00 | 0.00 | 0.00 | 63 | 1011.2 |
| 20260506151503 | 23 | 248 | 8.0 | 17.7 | 0.00 | 0.00 | 0.00 | 65 | 1011.3 |
| 20260506151004 | 23 | 236 | 8.0 | 29.0 | 0.00 | 0.00 | 0.00 | 65 | 1011.2 |
| 20260506150504 | 23 | 261 | 8.0 | 22.5 | 0.00 | 0.00 | 0.00 | 64 | 1011.3 |
| 20260506145503 | 23 | 253 | 8.0 | 27.4 | 0.00 | 0.00 | 0.00 | 64 | 1011.2 |
| 20260506145004 | 23 | 246 | 9.7 | 27.4 | 0.00 | 0.00 | 0.00 | 64 | 1011.2 |
| 20260506144503 | 23 | 165 | 9.7 | 30.6 | 0.00 | 0.00 | 0.00 | 61 | 1011.2 |
| 20260506144005 | 24 | 313 | 9.7 | 25.7 | 0.00 | 0.00 | 0.00 | 64 | 1011.2 |
| 20260506143005 | 23 | 166 | 9.7 | 24.1 | 0.00 | 0.00 | 0.00 | 63 | 1011.3 |
| 20260506142504 | 23 | 190 | 11.3 | 25.7 | 0.00 | 0.00 | 0.00 | 63 | 1011.4 |
| 20260506141502 | 22 | 233 | 12.9 | 41.8 | 0.00 | 0.00 | 0.00 | 63 | 1011.4 |
| 20260506141005 | 23 | 279 | 11.3 | 40.2 | 0.00 | 0.00 | 0.00 | 62 | 1011.2 |
| 20260506140506 | 24 | 257 | 8.0 | 20.9 | 0.00 | 0.00 | 0.00 | 60 | 1011.7 |
| 20260506140007 | 23 | 272 | 9.7 | 24.1 | 0.00 | 0.00 | 0.00 | 64 | 1011.4 |
| 20260506135504 | 23 | 201 | 11.3 | 25.7 | 0.00 | 0.00 | 0.00 | 64 | 1011.1 |
| 20260506135004 | 22 | 264 | 9.7 | 27.4 | 0.00 | 0.00 | 0.00 | 64 | 1011.3 |
| 20260506134504 | 22 | 209 | 8.0 | 27.4 | 0.00 | 0.00 | 0.00 | 63 | 1011.5 |
| 20260506134004 | 23 | 266 | 8.0 | 24.1 | 0.00 | 0.00 | 0.00 | 65 | 1011.5 |
| 20260506133503 | 22 | 303 | 11.3 | 29.0 | 0.00 | 0.00 | 0.00 | 65 | 1011.5 |
| 20260506132503 | 22 | 196 | 8.0 | 27.4 | 0.00 | 0.00 | 0.00 | 65 | 1011.6 |
| 20260506132005 | 22 | 234 | 8.0 | 27.4 | 0.00 | 0.00 | 0.00 | 66 | 1011.6 |
| 20260506131503 | 21 | 67 | 8.0 | 27.4 | 0.00 | 0.00 | 0.00 | 66 | 1011.7 |
| 20260506131005 | 22 | 310 | 8.0 | 27.4 | 0.00 | 0.00 | 0.00 | 67 | 1011.6 |
| 20260506130503 | 22 | 239 | 8.0 | 24.1 | 0.00 | 0.00 | 0.00 | 66 | 1011.7 |
| 20260506130006 | 21 | 24 | 8.0 | 19.3 | 0.00 | 0.00 | 0.00 | 67 | 1011.9 |
| 20260506125502 | 21 | 213 | 8.0 | 24.1 | 0.00 | 0.00 | 0.00 | 68 | 1012.0 |
| 20260506125002 | 20 | 256 | 8.0 | 41.8 | 0.00 | 0.00 | 0.00 | 68 | 1011.9 |
| 20260506124502 | 20 | 224 | 8.0 | 41.8 | 0.00 | 0.00 | 0.00 | 68 | 1011.9 |
| 20260506124004 | 20 | 231 | 8.0 | 19.3 | 0.00 | 0.00 | 0.00 | 68 | 1011.9 |
| 20260506123503 | 20 | 178 | 6.4 | 19.3 | 0.00 | 0.00 | 0.00 | 69 | 1012.0 |
| 20260506123003 | 20 | 238 | 6.4 | 20.9 | 0.00 | 0.00 | 0.00 | 68 | 1011.8 |
| 20260506122502 | 20 | 246 | 8.0 | 20.9 | 0.00 | 0.00 | 0.00 | 68 | 1011.9 |
| 20260506122004 | 20 | 271 | 8.0 | 35.4 | 0.00 | 0.00 | 0.00 | 68 | 1011.9 |
| 20260506121501 | 20 | 279 | 8.0 | 35.4 | 0.00 | 0.00 | 0.00 | 68 | 1011.8 |
| 20260506121002 | 21 | 215 | 8.0 | 29.0 | 0.00 | 0.00 | 0.00 | 67 | 1011.8 |
| 20260506120502 | 20 | 175 | 6.4 | 22.5 | 0.00 | 0.00 | 0.00 | 68 | 1011.8 |
| 20260506120006 | 20 | 328 | 6.4 | 16.1 | 0.00 | 0.00 | 0.00 | 68 | 1011.8 |
| 20260506115502 | 20 | 237 | 6.4 | 16.1 | 0.00 | 0.00 | 0.00 | 69 | 1011.8 |
| 20260506115004 | 19 | 169 | 4.8 | 25.7 | 0.00 | 0.00 | 0.00 | 70 | 1011.7 |
| 20260506114502 | 18 | 334 | 6.4 | 25.7 | 0.00 | 0.00 | 0.00 | 72 | 1011.8 |
| 20260506114003 | 18 | 261 | 6.4 | 20.9 | 0.00 | 0.00 | 0.00 | 70 | 1011.9 |
| 20260506113502 | 18 | 237 | 6.4 | 20.9 | 0.00 | 0.00 | 0.00 | 71 | 1011.8 |
| 20260506113004 | 18 | 201 | 6.4 | 24.1 | 0.00 | 0.00 | 0.00 | 71 | 1011.8 |
| 20260506112503 | 18 | 297 | 8.0 | 24.1 | 0.00 | 0.00 | 0.00 | 71 | 1011.7 |
| 20260506112002 | 18 | 334 | 8.0 | 25.7 | 0.00 | 0.00 | 0.00 | 71 | 1011.7 |
| 20260506111502 | 18 | 196 | 6.4 | 25.7 | 0.00 | 0.00 | 0.00 | 71 | 1011.6 |
| 20260506111004 | 18 | 229 | 6.4 | 14.5 | 0.00 | 0.00 | 0.00 | 72 | 1011.8 |
| 20260506110503 | 18 | 148 | 6.4 | 17.7 | 0.00 | 0.00 | 0.00 | 72 | 1011.8 |
| 20260506110004 | 18 | 263 | 6.4 | 17.7 | 0.00 | 0.00 | 0.00 | 73 | 1011.6 |
| 20260506105501 | 17 | 208 | 4.8 | 20.9 | 0.00 | 0.00 | 0.00 | 73 | 1011.7 |
| 20260506105003 | 17 | 232 | 4.8 | 20.9 | 0.00 | 0.00 | 0.00 | 74 | 1011.8 |
| 20260506104502 | 17 | 97 | 4.8 | 17.7 | 0.00 | 0.00 | 0.00 | 73 | 1011.8 |
| 20260506102501 | 17 | 217 | 4.8 | 24.1 | 0.00 | 0.00 | 0.00 | 73 | 1011.9 |
| 20260506102003 | 17 | 263 | 4.8 | 14.5 | 0.00 | 0.00 | 0.00 | 73 | 1011.9 |
| 20260506101503 | 17 | 221 | 6.4 | 17.7 | 0.00 | 0.00 | 0.00 | 73 | 1011.9 |
| 20260506101002 | 17 | 195 | 4.8 | 20.9 | 0.00 | 0.00 | 0.00 | 73 | 1011.9 |
| 20260506100504 | 17 | 225 | 4.8 | 14.5 | 0.00 | 0.00 | 0.00 | 73 | 1011.8 |
| 20260506095503 | 17 | 263 | 6.4 | 20.9 | 0.00 | 0.00 | 0.00 | 73 | 1011.6 |
| 20260506095003 | 17 | 237 | 4.8 | 20.9 | 0.00 | 0.00 | 0.00 | 73 | 1011.6 |
| 20260506094502 | 17 | 226 | 4.8 | 16.1 | 0.00 | 0.00 | 0.00 | 73 | 1011.6 |
| 20260506094002 | 17 | 271 | 4.8 | 14.5 | 0.00 | 0.00 | 0.00 | 73 | 1011.8 |
| 20260506093501 | 17 | 225 | 4.8 | 14.5 | 0.00 | 0.00 | 0.00 | 73 | 1011.8 |
| 20260506093004 | 17 | 205 | 4.8 | 12.9 | 0.00 | 0.00 | 0.00 | 73 | 1011.8 |
| 20260506092501 | 17 | 206 | 4.8 | 9.7 | 0.00 | 0.00 | 0.00 | 72 | 1011.7 |
| 20260506092003 | 17 | 266 | 4.8 | 11.3 | 0.00 | 0.00 | 0.00 | 72 | 1011.7 |
| 20260506091502 | 17 | 235 | 3.2 | 11.3 | 0.00 | 0.00 | 0.00 | 72 | 1011.7 |
| 20260506090501 | 17 | 242 | 4.8 | 14.5 | 0.00 | 0.00 | 0.00 | 71 | 1011.7 |
| 20260506090006 | 17 | 230 | 4.8 | 14.5 | 0.00 | 0.00 | 0.00 | 71 | 1011.7 |
| 20260506085501 | 17 | 165 | 4.8 | 14.5 | 0.00 | 0.00 | 0.00 | 72 | 1011.7 |
| 20260506085002 | 17 | 273 | 4.8 | 11.3 | 0.00 | 0.00 | 0.00 | 71 | 1011.8 |
| 20260506084501 | 17 | 221 | 4.8 | 11.3 | 0.00 | 0.00 | 0.00 | 71 | 1011.9 |
| 20260506084003 | 17 | 159 | 4.8 | 11.3 | 0.00 | 0.00 | 0.00 | 71 | 1011.8 |
| 20260506083501 | 18 | 192 | 4.8 | 16.1 | 0.00 | 0.00 | 0.00 | 71 | 1011.7 |
| 20260506083002 | 18 | 184 | 4.8 | 16.1 | 0.00 | 0.00 | 0.00 | 71 | 1011.9 |
| 20260506082500 | 18 | 313 | 4.8 | 19.3 | 0.00 | 0.00 | 0.00 | 70 | 1011.8 |
| 20260506082002 | 18 | 212 | 4.8 | 14.5 | 0.00 | 0.00 | 0.00 | 71 | 1011.9 |
| 20260506081502 | 18 | 178 | 3.2 | 14.5 | 0.00 | 0.00 | 0.00 | 71 | 1011.9 |
| 20260506081002 | 17 | 228 | 6.4 | 19.3 | 0.00 | 0.00 | 0.00 | 72 | 1011.9 |
| 20260506080502 | 18 | 215 | 6.4 | 19.3 | 0.00 | 0.00 | 0.00 | 72 | 1011.9 |
| 20260506073501 | 18 | 175 | 4.8 | 17.7 | 0.00 | 0.00 | 0.00 | 73 | 1012.0 |
| 20260506073002 | 18 | 270 | 6.4 | 17.7 | 0.00 | 0.00 | 0.00 | 74 | 1011.9 |
| 20260506072501 | 18 | 214 | 6.4 | 24.1 | 0.00 | 0.00 | 0.00 | 74 | 1011.9 |
| 20260506072001 | 18 | 239 | 8.0 | 24.1 | 0.00 | 0.00 | 0.00 | 74 | 1011.8 |
| 20260506071500 | 18 | 262 | 6.4 | 14.5 | 0.00 | 0.00 | 0.00 | 74 | 1011.8 |
| 20260506071005 | 18 | 292 | 4.8 | 12.9 | 0.00 | 0.00 | 0.00 | 74 | 1011.8 |
| 20260506070501 | 18 | 233 | 6.4 | 12.9 | 0.00 | 0.00 | 0.00 | 75 | 1011.9 |
| 20260506062001 | 18 | 82 | 6.4 | 16.1 | 0.00 | 0.00 | 0.00 | 75 | 1012.1 |
| 20260506061501 | 18 | 149 | 6.4 | 16.1 | 0.00 | 0.00 | 0.00 | 75 | 1012.1 |
| 20260506061001 | 18 | 206 | 6.4 | 19.3 | 0.00 | 0.00 | 0.00 | 76 | 1012.2 |
| 20260506060500 | 18 | 266 | 6.4 | 19.3 | 0.00 | 0.00 | 0.00 | 75 | 1012.2 |
| 20260506051002 | 18 | 219 | 6.4 | 19.3 | 0.00 | 0.00 | 0.00 | 75 | 1012.6 |
| 20260506050502 | 18 | 273 | 6.4 | 19.3 | 0.00 | 0.00 | 0.00 | 75 | 1012.6 |
| 20260506045004 | 18 | 211 | 8.0 | 17.7 | 0.00 | 0.00 | 0.00 | 75 | 1012.6 |
| 20260506044004 | 18 | 221 | 6.4 | 17.7 | 0.00 | 0.00 | 0.00 | 75 | 1012.6 |
| 20260506043504 | 18 | 235 | 6.4 | 19.3 | 0.00 | 0.00 | 0.00 | 75 | 1012.5 |
| 20260506043005 | 18 | 201 | 6.4 | 19.3 | 0.00 | 0.00 | 0.00 | 75 | 1012.5 |
| 20260506042503 | 18 | 220 | 6.4 | 16.1 | 0.00 | 0.00 | 0.00 | 75 | 1012.5 |
| 20260506042004 | 18 | 229 | 6.4 | 16.1 | 0.00 | 0.00 | 0.00 | 74 | 1012.5 |
| 20260506041503 | 18 | 200 | 6.4 | 12.9 | 0.00 | 0.00 | 0.00 | 74 | 1012.6 |
| 20260506041003 | 18 | 277 | 6.4 | 16.1 | 0.00 | 0.00 | 0.00 | 74 | 1012.5 |
| 20260506040504 | 18 | 207 | 6.4 | 16.1 | 0.00 | 0.00 | 0.00 | 74 | 1012.4 |
| 20260506040016 | 18 | 198 | 6.4 | 14.5 | 0.00 | 0.00 | 0.00 | 74 | 1012.5 |
| 20260506035505 | 18 | 200 | 6.4 | 17.7 | 0.00 | 0.00 | 0.00 | 73 | 1012.5 |
| 20260506034506 | 18 | 223 | 4.8 | 19.3 | 0.00 | 0.00 | 0.00 | 73 | 1012.5 |
| 20260506034007 | 18 | 264 | 6.4 | 12.9 | 0.00 | 0.00 | 0.00 | 73 | 1012.5 |
| 20260506033506 | 19 | 217 | 6.4 | 19.3 | 0.00 | 0.00 | 0.00 | 73 | 1012.5 |
| 20260506033007 | 19 | 166 | 6.4 | 19.3 | 0.00 | 0.00 | 0.00 | 73 | 1012.5 |
| 20260506032505 | 19 | 184 | 6.4 | 22.5 | 0.00 | 0.00 | 0.00 | 72 | 1012.5 |
| 20260506032007 | 19 | 215 | 6.4 | 22.5 | 0.00 | 0.00 | 0.00 | 72 | 1012.6 |
| 20260506031506 | 19 | 194 | 6.4 | 17.7 | 0.00 | 0.00 | 0.00 | 72 | 1012.4 |